This is the latest recevied weather packets stored in our database for station/object IZ7EXI-13. If no packets are shown the sender has not sent any weather packets the latest 10 day(s).
| Time | Temp. | Humidity | Pressure | Rain* | Wind** | Luminosity | Snow |
|---|---|---|---|---|---|---|---|
| 1788264445 | 34.44° C | 52% | 1019.1 hPa | - | - | - | - |
| 1788264421 | 34.44° C | 52% | 1019.1 hPa | - | - | - | - |
| 1788263557 | 35° C | 50% | 1019.1 hPa | - | - | - | - |
| 1788263521 | 35° C | 50% | 1019.1 hPa | - | - | - | - |
| 1788262646 | 35.56° C | 47% | 1019.1 hPa | - | - | - | - |
| 1788262621 | 35.56° C | 47% | 1019.1 hPa | - | - | - | - |
| 1788261720 | 35.56° C | 47% | 1019.1 hPa | - | - | - | - |
| 1788260854 | 35° C | 42% | 1019.1 hPa | - | - | - | - |
| 1788260820 | 35° C | 42% | 1019.1 hPa | - | - | - | - |
| 1788259920 | 35.56° C | 45% | 1019.3 hPa | - | - | - | - |
| 1788259052 | 33.33° C | 53% | 1019.4 hPa | - | - | - | - |
| 1788259020 | 33.33° C | 53% | 1019.4 hPa | - | - | - | - |
| 1788258153 | 32.78° C | 55% | 1019.5 hPa | - | - | - | - |
| 1788258119 | 32.78° C | 55% | 1019.5 hPa | - | - | - | - |
| 1788257253 | 32.22° C | 58% | 1019.5 hPa | - | - | - | - |
| 1788257219 | 32.22° C | 58% | 1019.5 hPa | - | - | - | - |
| 1788256349 | 31.11° C | 60% | 1019.5 hPa | - | - | - | - |
| 1788256319 | 31.11° C | 60% | 1019.5 hPa | - | - | - | - |
| 1788255446 | 31.11° C | 57% | 1019.5 hPa | - | - | - | - |
| 1788255419 | 31.11° C | 57% | 1019.5 hPa | - | - | - | - |
| 1788254554 | 31.11° C | 57% | 1019.4 hPa | - | - | - | - |
| 1788254519 | 31.11° C | 57% | 1019.4 hPa | - | - | - | - |
| 1788253649 | 31.11° C | 58% | 1019.4 hPa | - | - | - | - |
| 1788253618 | 31.11° C | 58% | 1019.4 hPa | - | - | - | - |
| 1788252749 | 31.11° C | 55% | 1019.3 hPa | - | - | - | - |
* Rain since midnight (hover to see other rain measurements)
** Current wind speed in m/s (hover to see current wind gust speed)